User: anonymous   Login
Location: Arrodets-la-Barthe
(43.0306°N, 0.2829°E)
Time: 04:49:04
(UTC+00:00)
Language:

ATLAS 5 CENTAUR R/B - Orbit

View from above orbital plane
View from above orbital plane
View from above satellite
View from above satellite

Ground track
Ground track

The orbit data is extracted from the following two-line orbital elements,

1 31702U 07027B   22019.75998899 0.00000516  00000-0  80523-4 0    04
2 31702  63.3518   4.9070 0467172  21.4418 338.5438 14.19169355    06
Epoch (UTC): 19 January 2022 18:14:23
Eccentricity: 0.0467172
inclination: 63.3518°
perigee height: 491 km
apogee height: 1165 km
right ascension of ascending node: 4.9070°
argument of perigee: 21.4418°
revolutions per day: 14.19169355
mean anomaly at epoch: 338.5438°
orbit number at epoch: 0

The dashed part of the orbit path shows where the satellite is in the earth's shadow,  

DLR